Location: Newark
(50.4348°N, 30.5552°E)
Time: 20:33:37
(UTC+00:00)

Courier 1B Rocket - All Passes

Search period start: 24 January 2020 00:00
Search period end: 03 February 2020 00:00
Orbit: 920 x 1202 km, 28.2° (Epoch: 24 January)

Date Brightness Start Highest point End Pass type
(mag) Time Alt. Az. Time Alt. Az. Time Alt. Az.
27 Jan - 10:54:05 10° S 10:54:43 10° S 10:55:21 10° S daylight
28 Jan - 09:52:42 10° S 09:54:06 11° S 09:55:30 10° SSE daylight
29 Jan - 08:52:23 10° S 08:53:28 10° S 08:54:32 10° SSE daylight
30 Jan - 09:42:51 10° SSW 09:44:48 11° S 09:46:42 10° SSE daylight
31 Jan - 08:41:49 10° SSW 08:44:08 12° S 08:46:25 10° SSE daylight
01 Feb - 07:41:21 10° S 07:43:27 11° S 07:45:32 10° SSE daylight
01 Feb - 09:33:45 10° SSW 09:35:27 11° S 09:37:09 10° S daylight
02 Feb - 06:42:05 10° S 06:42:45 10° SSE 06:43:24 10° SSE daylight
02 Feb - 08:32:09 10° SSW 08:34:47 12° S 08:37:22 10° SSE daylight
